This demonstration page uses our WeatherBlox Daily Observations layout. Learn more.

Left ArrowRight Arrow

Hourly Observations for July 3, 2019

Temp ( °F °C ) Dew Point ( °F °C ) Humidity (%) Winds ( mph kmh ) Pressure ( in mb ) Visibility ( mi km ) Precip ( " mm )
12:53 am 00:53 Clear 77 25 71 21.7 82 82 N N/A 29.93 1014 10 16 N/A
1:53 am 01:53 Clear 76 24.4 71 21.7 85 85 W 5 7 29.93 1013 10 16 N/A
2:53 am 02:53 Mostly Cloudy 77 25 70 21.1 79 79 WSW 3 6 29.92 1013 10 16 N/A
3:53 am 03:53 Clear 76 24.4 69 20.6 79 79 WSW 3 6 29.92 1013 10 16 N/A
4:53 am 04:53 Clear 72 22.2 70 21.1 94 94 N N/A 29.91 1013 10 16 N/A
5:53 am 05:53 Mostly Cloudy 75 23.9 69 20.6 82 82 N N/A 29.93 1014 10 16 N/A
6:17 am 06:17 Mostly Cloudy with Light Rain 74 23.3 70 21.1 88 88 N N/A 29.94 1014 8 13 N/A
6:34 am 06:34 Cloudy with Heavy Thunderstorms 72 22.2 71 21.7 97 97 VRB 3 6 29.95 1014 2 3 0.11 2.79
6:41 am 06:41 Cloudy with Heavy Thunderstorms 73 22.8 71 21.7 94 94 VRB 3 6 29.96 1015 1 2 0.20 5.08
6:53 am 06:53 Cloudy with Heavy Thunderstorms 72 22.2 71 21.7 97 97 E 7 11 29.96 1015 2 2 0.35 8.89
7:01 am 07:01 Cloudy with Heavy Thunderstorms 72 22.2 71 21.7 97 97 S 6 9 29.96 1015 1 2 0.06 1.52
7:09 am 07:09 Cloudy with Thunderstorms 72 22.2 71 21.7 97 97 VRB 5 7 29.96 1015 2 3 0.07 1.78
7:12 am 07:12 Cloudy with Light Thunderstorms 72 22.2 71 21.7 97 97 VRB 3 6 29.95 1014 3 5 0.07 1.78
7:25 am 07:25 Mostly Cloudy with Nearby Thunderstorms 72 22.2 71 21.7 97 97 E 8 13 29.95 1014 4 6 0.07 1.78
7:43 am 07:43 Mostly Cloudy with Mist and Fog 72 22.2 71 21.7 97 97 E 3 6 29.95 1014 4 6 0.07 1.78
7:53 am 07:53 Mostly Cloudy with Mist and Fog 72 22.2 71 21.7 97 97 N N/A 29.95 1014 5 8 0.07 1.78
8:53 am 08:53 Sunny 76 24.4 71 21.7 85 85 E 5 7 29.94 1014 10 16 N/A
9:53 am 09:53 Sunny 79 26.1 71 21.7 77 77 SSE 6 9 29.95 1014 10 16 N/A
10:53 am 10:53 Sunny 82 27.8 72 22.2 72 72 VRB 5 7 29.95 1014 10 16 N/A
11:53 am 11:53 Mostly Sunny 84 28.9 73 22.8 70 70 VRB 5 7 29.95 1014 10 16 N/A
12:53 pm 12:53 Partly Cloudy 87 30.6 74 23.3 65 65 VRB 5 7 29.95 1014 10 16 N/A
1:53 pm 13:53 Sunny 88 31.1 73 22.8 61 61 VRB 6 9 29.91 1013 10 16 N/A
2:53 pm 14:53 Mostly Sunny 89 31.7 73 22.8 59 59 WSW 8 13 29.90 1013 10 16 N/A
3:53 pm 15:53 Sunny with Nearby Thunderstorms 86 30 73 22.8 65 65 SW 7 11 29.90 1013 10 16 N/A
4:34 pm 16:34 Mostly Cloudy with Nearby Thunderstorms 76 24.4 68 20 77 77 NNW 15 24 29.94 1014 10 16 N/A
4:53 pm 16:53 Cloudy with Nearby Thunderstorms 74 23.3 67 19.4 79 79 NW 9 15 29.94 1014 10 16 N/A
5:18 pm 17:18 Mostly Cloudy with Light Rain 76 24.4 69 20.6 79 79 N N/A 29.91 1013 6 10 0.02 0.51
5:53 pm 17:53 Sunny 79 26.1 70 21.1 74 74 ESE 3 6 29.90 1013 10 16 0.02 0.51
6:53 pm 18:53 Sunny 83 28.3 69 20.6 63 63 E 5 7 29.90 1012 10 16 N/A
7:22 pm 19:22 Mostly Sunny 82 27.8 70 21.1 67 67 N N/A 29.89 1012 10 16 N/A
7:53 pm 19:53 Sunny 80 26.7 69 20.6 69 69 N N/A 29.93 1013 10 16 N/A
8:53 pm 20:53 Partly Cloudy 79 26.1 70 21.1 74 74 VRB 5 7 29.93 1014 10 16 N/A
9:53 pm 21:53 Clear 77 25 70 21.1 79 79 N N/A 29.94 1014 10 16 N/A
10:53 pm 22:53 Clear 75 23.9 71 21.7 88 88 N N/A 29.96 1015 10 16 N/A
11:53 pm 23:53 Mostly Clear 74 23.3 71 21.7 91 91 N N/A 29.96 1015 10 16 N/A

Powered by AerisWeather